| time (UTC) | temp C | wind direction | speed KPH | gust KPH | rain 1hr cm | rain 24hr cm | rain mn cm | humidity % | barometer mb |
| 20260905183109 | 19 | 246 | 3.2 | 12.9 | 0.00 | 0.08 | 0.08 | 58 | 1020.4 |
| 20260905181610 | 20 | 292 | 4.8 | 11.3 | 0.00 | 0.08 | 0.08 | 57 | 1020.4 |
| 20260905180109 | 20 | 301 | 4.8 | 9.7 | 0.00 | 0.08 | 0.08 | 56 | 1020.3 |
| 20260905174609 | 20 | 298 | 3.2 | 14.5 | 0.00 | 0.08 | 0.08 | 55 | 1020.1 |
| 20260905173110 | 20 | 318 | 3.2 | 6.4 | 0.00 | 0.08 | 0.08 | 53 | 1019.9 |
| 20260905171609 | 20 | 281 | 3.2 | 6.4 | 0.00 | 0.08 | 0.08 | 53 | 1019.7 |
| 20260905164608 | 21 | 255 | 8.0 | 20.9 | 0.00 | 0.08 | 0.08 | 50 | 1019.6 |
| 20260905163108 | 21 | 261 | 19.3 | 32.2 | 0.00 | 0.08 | 0.08 | 49 | 1019.5 |
| 20260905160108 | 22 | 254 | 14.5 | 25.7 | 0.00 | 0.08 | 0.08 | 47 | 1019.2 |
| 20260905154608 | 21 | 249 | 14.5 | 25.7 | 0.00 | 0.08 | 0.08 | 48 | 1019.3 |
| 20260905151608 | 22 | 304 | 8.0 | 27.4 | 0.00 | 0.08 | 0.08 | 47 | 1019.0 |
| 20260905150108 | 22 | 242 | 9.7 | 20.9 | 0.00 | 0.08 | 0.08 | 46 | 1018.9 |
| 20260905144608 | 23 | 339 | 14.5 | 27.4 | 0.00 | 0.08 | 0.08 | 44 | 1019.0 |
| 20260905143108 | 23 | 259 | 16.1 | 29.0 | 0.00 | 0.08 | 0.08 | 44 | 1019.0 |
| 20260905140113 | 23 | 263 | 12.9 | 20.9 | 0.00 | 0.08 | 0.08 | 44 | 1019.0 |
| 20260905134614 | 23 | 286 | 11.3 | 25.7 | 0.00 | 0.08 | 0.08 | 46 | 1018.7 |
| 20260905131614 | 23 | 224 | 6.4 | 24.1 | 0.00 | 0.08 | 0.08 | 47 | 1019.2 |
| 20260905130112 | 23 | 302 | 12.9 | 20.9 | 0.00 | 0.08 | 0.08 | 47 | 1019.1 |
| 20260905124612 | 23 | 263 | 16.1 | 27.4 | 0.00 | 0.08 | 0.08 | 47 | 1019.3 |
| 20260905121612 | 23 | 316 | 19.3 | 27.4 | 0.00 | 0.08 | 0.08 | 48 | 1019.4 |
| 20260905120112 | 23 | 323 | 9.7 | 25.7 | 0.00 | 0.08 | 0.08 | 49 | 1019.3 |
| 20260905114612 | 23 | 272 | 11.3 | 24.1 | 0.00 | 0.08 | 0.08 | 49 | 1019.2 |
| 20260905113111 | 22 | 207 | 8.0 | 20.9 | 0.00 | 0.08 | 0.08 | 53 | 1019.2 |
| 20260905111611 | 22 | 322 | 9.7 | 19.3 | 0.00 | 0.08 | 0.08 | 54 | 1019.2 |
| 20260905110111 | 22 | 312 | 8.0 | 19.3 | 0.00 | 0.08 | 0.08 | 54 | 1019.3 |
| 20260905104611 | 21 | 242 | 8.0 | 12.9 | 0.00 | 0.08 | 0.08 | 59 | 1019.2 |
| 20260905101611 | 21 | 325 | 6.4 | 16.1 | 0.00 | 0.08 | 0.08 | 62 | 1019.5 |
| 20260905100111 | 20 | 261 | 6.4 | 16.1 | 0.00 | 0.08 | 0.08 | 66 | 1019.7 |
| 20260905094611 | 20 | 232 | 4.8 | 16.1 | 0.00 | 0.08 | 0.08 | 69 | 1019.6 |
| 20260905093111 | 19 | 338 | 4.8 | 17.7 | 0.00 | 0.08 | 0.08 | 71 | 1019.7 |
| 20260905091610 | 18 | 277 | 1.6 | 11.3 | 0.00 | 0.08 | 0.08 | 75 | 1019.8 |
| 20260905090110 | 17 | 229 | 4.8 | 12.9 | 0.00 | 0.08 | 0.08 | 79 | 1019.9 |
| 20260905084612 | 17 | 239 | 6.4 | 12.9 | 0.00 | 0.08 | 0.08 | 82 | 1019.9 |
| 20260905081610 | 15 | 197 | 1.6 | 4.8 | 0.00 | 0.08 | 0.08 | 87 | 1019.8 |
| 20260905064609 | 14 | 198 | 3.2 | 11.3 | 0.05 | 0.08 | 0.08 | 88 | 1017.5 |
| 20260905063109 | 14 | 206 | 3.2 | 11.3 | 0.03 | 0.05 | 0.05 | 85 | 1018.5 |
| 20260905060109 | 15 | 315 | 6.4 | 16.1 | 0.00 | 0.05 | 0.05 | 82 | 1018.8 |
| 20260905054609 | 15 | 290 | 6.4 | 16.1 | 0.00 | 0.05 | 0.05 | 83 | 1018.5 |
| 20260905053109 | 15 | 296 | 4.8 | 11.3 | 0.00 | 0.05 | 0.05 | 83 | 1018.5 |
| 20260905050109 | 15 | 288 | 1.6 | 6.4 | 0.00 | 0.05 | 0.05 | 84 | 1017.5 |
| 20260905044609 | 16 | 288 | 1.6 | 6.4 | 0.05 | 0.05 | 0.05 | 84 | 1017.4 |
| 20260905043109 | 16 | 280 | 0.0 | 12.9 | 0.05 | 0.05 | 0.05 | 84 | 1017.2 |
| 20260905041609 | 16 | 302 | 4.8 | 8.0 | 0.05 | 0.05 | 0.05 | 84 | 1017.1 |
| 20260905040108 | 17 | 317 | 6.4 | 11.3 | 0.05 | 0.05 | 0.05 | 81 | 1016.8 |
| 20260905034608 | 17 | 317 | 8.0 | 29.0 | 0.00 | 0.00 | 0.00 | 74 | 1017.1 |
| 20260905033108 | 18 | 325 | 8.0 | 14.5 | 0.00 | 0.00 | 0.00 | 71 | 1016.2 |
| 20260905031608 | 18 | 327 | 8.0 | 27.4 | 0.00 | 0.00 | 0.00 | 67 | 1015.7 |
| 20260905030113 | 18 | 312 | 8.0 | 22.5 | 0.00 | 0.00 | 0.00 | 65 | 1015.6 |
| 20260905024613 | 18 | 311 | 8.0 | 17.7 | 0.00 | 0.00 | 0.00 | 68 | 1015.3 |
| 20260905021613 | 18 | 344 | 3.2 | 17.7 | 0.00 | 0.00 | 0.00 | 68 | 1015.3 |
| 20260905020113 | 19 | 337 | 9.7 | 24.1 | 0.00 | 0.00 | 0.00 | 68 | 1015.2 |
| 20260905014612 | 19 | 317 | 17.7 | 24.1 | 0.00 | 0.00 | 0.00 | 68 | 1014.6 |
| 20260905011612 | 20 | 331 | 16.1 | 37.0 | 0.00 | 0.00 | 0.00 | 67 | 1014.8 |
| 20260905004613 | 23 | 301 | 1.6 | 6.4 | 0.00 | 0.00 | 0.00 | 57 | 1013.0 |
| 20260905003112 | 23 | 221 | 3.2 | 11.3 | 0.00 | 0.00 | 0.00 | 57 | 1012.5 |
| 20260904234611 | 23 | 250 | 4.8 | 8.0 | 0.00 | 0.00 | 0.00 | 57 | 1012.3 |
| 20260904233111 | 23 | 279 | 4.8 | 16.1 | 0.00 | 0.00 | 0.00 | 58 | 1012.3 |
| 20260904230111 | 22 | 215 | 0.0 | 6.4 | 0.00 | 0.00 | 0.00 | 62 | 1012.2 |
| 20260904224612 | 21 | 236 | 0.0 | 3.2 | 0.00 | 0.00 | 0.00 | 63 | 1012.1 |
| 20260904221611 | 21 | 254 | 3.2 | 8.0 | 0.00 | 0.00 | 0.00 | 64 | 1012.2 |
| 20260904220111 | 21 | 189 | 0.0 | 0.0 | 0.00 | 0.00 | 0.00 | 64 | 1012.0 |
| 20260904214611 | 22 | 189 | 0.0 | 0.0 | 0.00 | 0.00 | 0.00 | 62 | 1012.1 |
| 20260904213110 | 22 | 189 | 0.0 | 3.2 | 0.00 | 0.00 | 0.00 | 60 | 1012.1 |
| 20260904211610 | 22 | 196 | 4.8 | 8.0 | 0.00 | 0.00 | 0.00 | 59 | 1012.1 |
| 20260904210110 | 21 | 255 | 3.2 | 4.8 | 0.00 | 0.00 | 0.00 | 62 | 1012.0 |
| 20260904204610 | 21 | 253 | 1.6 | 3.2 | 0.00 | 0.00 | 0.00 | 63 | 1012.1 |
| 20260904203110 | 21 | 247 | 0.0 | 0.0 | 0.00 | 0.00 | 0.00 | 62 | 1012.1 |
| 20260904201610 | 22 | 247 | 0.0 | 0.0 | 0.00 | 0.00 | 0.00 | 61 | 1012.3 |
| 20260904200110 | 22 | 257 | 0.0 | 0.0 | 0.00 | 0.00 | 0.00 | 60 | 1012.5 |
| 20260904194610 | 22 | 257 | 1.6 | 3.2 | 0.00 | 0.00 | 0.00 | 60 | 1012.5 |
| 20260904193110 | 23 | 230 | 0.0 | 0.0 | 0.00 | 0.00 | 0.00 | 58 | 1012.5 |
| 20260904191611 | 23 | 229 | 0.0 | 0.0 | 0.00 | 0.00 | 0.00 | 56 | 1012.6 |
| 20260904190109 | 23 | 252 | 1.6 | 4.8 | 0.00 | 0.00 | 0.00 | 55 | 1012.6 |
| 20260904184609 | 24 | 207 | 3.2 | 4.8 | 0.00 | 0.00 | 0.00 | 54 | 1012.5 |